Weather reports worldwide

Advertisment
Montauban, France (7540): temperature & dewpoint: 19.09.2018 12:00:00 - 25.09.2018 12:00:00 (CEST)Montauban, France (7540): temperature 5cm: 19.09.2018 12:00:00 - 25.09.2018 12:00:00 (CEST)Montauban, France (7540): temperature -20cm & temperature -100cm: 19.09.2018 12:00:00 - 25.09.2018 12:00:00 (CEST)Montauban, France (7540): wind speed & gusts: 19.09.2018 12:00:00 - 25.09.2018 12:00:00 (CEST)Montauban, France (7540): wind direction: 19.09.2018 12:00:00 - 25.09.2018 12:00:00 (CEST)Montauban, France (7540): reduced air pressure: 19.09.2018 12:00:00 - 25.09.2018 12:00:00 (CEST)Montauban, France (7540): visibility: 19.09.2018 12:00:00 - 25.09.2018 12:00:00 (CEST)Montauban, France (7540): sunshine duration: 19.09.2018 12:00:00 - 25.09.2018 12:00:00 (CEST)Montauban, France (7540): precipitation: 19.09.2018 12:00:00 - 25.09.2018 12:00:00 (CEST)
Date & Time tt [°C] td [°C] tt 5cm [°C] tt -20cm [°C] tt -100cm [°C] ff [km/h] ff [kn] fx [km/h] fx [kn] dd ppp [hPa] vv [km] sd [min] rr [mm]
25.09.2018 12:00:00 - - - - - - - - - - - - - -
25.09.2018 11:00:00 15,1 5,3 18,1 21,3 22,3 5 3 15 8 E 1029,0 20 60 0,0
25.09.2018 10:00:00 12,4 5,5 13,4 21,5 22,3 4 2 9 5 E 1028,9 20 60 0,0
25.09.2018 09:00:00 10,1 5,5 5,2 21,6 22,3 0 0 5 3 N 1028,6 20 54 0,0
25.09.2018 08:00:00 6,5 4,2 3,4 21,8 22,3 2 1 5 3 S 1028,6 20 0 0,0
25.09.2018 07:00:00 6,8 4,1 3,9 22,1 22,3 0 0 5 3 N 1028,4 20 0 0,0
25.09.2018 06:00:00 8,0 4,0 5,5 22,3 22,3 4 2 6 4 E 1028,2 20 0 0,0
25.09.2018 05:00:00 9,0 4,2 6,0 22,5 22,3 5 3 10 5 E 1028,3 20 0 0,0
25.09.2018 04:00:00 12,1 3,6 8,5 22,7 22,3 6 3 14 7 NE 1028,3 20 0 0,0
25.09.2018 03:00:00 11,9 4,4 6,3 22,9 22,3 7 4 15 8 NNW 1028,7 20 0 0,0
25.09.2018 02:00:00 9,3 5,1 5,9 23,1 22,3 0 0 10 5 N 1029,2 20 0 0,0
25.09.2018 01:00:00 9,8 5,0 6,6 23,2 22,3 0 0 9 5 N 1029,2 20 0 0,0
25.09.2018 00:00:00 13,9 4,7 11,6 23,3 22,3 4 2 10 5 NE 1029,2 20 0 0,0
24.09.2018 23:00:00 14,9 4,8 12,9 23,5 22,3 5 3 10 6 N 1029,1 20 0 0,0
24.09.2018 22:00:00 15,9 5,2 13,7 23,6 22,3 5 3 13 7 NNW 1029,0 20 0 0,0
24.09.2018 21:00:00 16,8 5,1 14,6 23,6 22,3 6 4 14 7 NW 1028,5 20 0 0,0
24.09.2018 20:00:00 18,8 4,2 17,3 23,6 22,3 8 4 24 13 NNW 1027,8 20 27 0,0
24.09.2018 19:00:00 20,5 3,2 22,5 23,5 22,3 12 7 30 16 NNW 1027,5 20 60 0,0
24.09.2018 18:00:00 20,4 2,7 26,1 23,5 22,3 18 10 33 18 NNE 1027,3 20 60 0,0
24.09.2018 17:00:00 21,2 2,9 27,3 23,4 22,3 16 9 32 17 NNW 1027,4 20 60 0,0
24.09.2018 16:00:00 21,3 3,0 27,3 23,3 22,3 16 9 31 17 NW 1027,8 20 60 0,0
24.09.2018 15:00:00 20,7 5,1 26,5 23,3 22,3 13 7 29 16 NNW 1028,0 20 60 0,0
24.09.2018 14:00:00 19,4 6,8 24,7 23,3 22,3 17 9 30 16 NNW 1028,5 20 58 0,0
24.09.2018 13:00:00 18,1 8,6 22,9 23,4 22,3 17 9 40 22 NNW 1028,6 20 55 0,0
24.09.2018 12:00:00 17,8 9,9 22,1 23,5 22,3 11 6 23 12 NNW 1028,7 20 60 0,0
24.09.2018 11:00:00 16,1 10,0 19,9 23,6 22,3 14 8 27 15 NNW 1028,5 20 60 0,0
24.09.2018 10:00:00 15,0 10,2 16,7 23,8 22,3 13 7 26 14 N 1028,2 20 60 0,0
24.09.2018 09:00:00 14,3 11,1 14,4 23,9 22,3 11 6 24 13 N 1027,4 20 44 0,0
24.09.2018 08:00:00 14,7 11,8 14,5 24,0 22,3 12 6 24 13 N 1026,7 20 0 0,0
24.09.2018 07:00:00 16,3 14,1 16,0 24,2 22,3 13 7 27 15 NNW 1025,7 20 0 0,0
24.09.2018 06:00:00 17,0 15,2 16,8 24,3 22,3 10 5 19 11 NNW 1025,1 20 0 0,0
24.09.2018 05:00:00 17,6 15,9 17,1 24,4 22,3 10 5 22 12 N 1024,7 18 0 0,2
24.09.2018 04:00:00 19,0 17,5 18,6 24,4 22,3 11 6 18 10 NNW 1024,3 20 0 0,2
24.09.2018 03:00:00 18,9 17,7 18,6 24,5 22,3 11 6 26 14 NNW 1024,5 3,5 0 1,8
24.09.2018 02:00:00 20,2 18,3 19,3 24,6 22,3 16 9 37 20 WNW 1024,2 6 0 0,2
24.09.2018 01:00:00 21,3 17,9 19,6 24,6 22,3 16 9 32 17 W 1024,2 20 0 0,0
24.09.2018 00:00:00 22,1 17,5 21,8 24,6 22,3 15 8 33 18 WNW 1024,2 20 0 0,0
23.09.2018 23:00:00 22,8 17,3 21,9 24,6 22,3 16 9 27 14 WNW 1024,2 20 0 0,0
23.09.2018 22:00:00 23,0 16,5 22,3 24,6 22,3 15 8 34 18 WNW 1023,6 20 0 0,0
23.09.2018 21:00:00 24,8 15,4 24,1 24,5 22,3 20 11 34 18 NW 1023,0 20 0 0,0
23.09.2018 20:00:00 26,6 14,7 25,8 24,4 22,3 17 9 26 14 NW 1022,0 20 25 0,0
23.09.2018 19:00:00 27,9 16,5 29,5 24,2 22,3 15 8 30 16 WNW 1021,3 20 60 0,0
23.09.2018 18:00:00 28,2 15,8 32,0 23,9 22,3 18 10 31 17 NW 1021,3 20 60 0,0
23.09.2018 17:00:00 28,1 15,4 32,8 23,7 22,3 17 9 29 16 W 1021,2 20 60 0,0
23.09.2018 16:00:00 27,9 14,9 33,4 23,4 22,3 16 9 28 15 NW 1021,2 20 60 0,0
23.09.2018 15:00:00 27,6 14,9 33,1 23,2 22,3 13 7 25 13 W 1021,6 20 60 0,0
23.09.2018 14:00:00 26,5 15,5 32,2 23,1 22,3 11 6 21 11 WNW 1022,4 20 60 0,0
23.09.2018 13:00:00 25,3 15,9 30,5 23,0 22,3 8 5 16 8 W 1023,1 20 60 0,0
23.09.2018 12:00:00 23,4 15,4 27,9 23,0 22,3 6 3 14 7 WSW 1023,8 20 60 0,0
23.09.2018 11:00:00 21,5 15,1 26,9 23,1 22,3 5 3 11 6 WSW 1024,3 20 60 0,0
23.09.2018 10:00:00 19,3 13,5 20,9 23,2 22,3 2 1 6 3 N 1024,3 20 60 0,0
23.09.2018 09:00:00 17,0 13,1 13,8 23,4 22,3 2 1 5 3 E 1024,0 20 57 0,0
23.09.2018 08:00:00 13,8 11,8 11,9 23,5 22,3 0 0 4 2 N 1024,0 20 0 0,0
23.09.2018 07:00:00 13,8 11,7 11,8 23,7 22,3 0 0 3 2 N 1023,9 20 0 0,0
23.09.2018 06:00:00 14,2 11,9 12,2 23,8 22,3 0 0 3 1 N 1023,8 20 0 0,0
23.09.2018 05:00:00 14,7 12,0 12,7 24,0 22,3 0 0 3 2 N 1023,6 20 0 0,0
23.09.2018 04:00:00 15,1 12,0 13,4 24,1 22,4 3 1 5 3 ESE 1024,0 20 0 0,0
23.09.2018 03:00:00 16,6 12,7 13,6 24,2 22,3 2 1 5 3 W 1024,6 20 0 0,0
23.09.2018 02:00:00 15,7 12,3 13,8 24,3 22,3 0 0 3 2 N 1024,6 20 0 0,0
23.09.2018 01:00:00 17,5 12,8 14,5 24,4 22,4 0 0 3 2 N 1024,4 20 0 0,0
23.09.2018 00:00:00 17,1 12,6 15,0 24,5 22,4 0 0 6 3 N 1024,4 20 0 0,0
22.09.2018 23:00:00 18,8 12,5 15,6 24,6 22,3 2 1 6 3 ENE 1024,3 20 0 0,0
22.09.2018 22:00:00 19,8 12,5 16,6 24,6 22,4 0 0 5 3 N 1023,8 20 0 0,0
22.09.2018 21:00:00 20,3 12,3 17,5 24,5 22,4 4 2 6 3 SE 1023,5 20 0 0,0
22.09.2018 20:00:00 24,4 11,7 22,8 24,3 22,3 5 3 13 7 NNW 1022,9 20 30 0,0
22.09.2018 19:00:00 25,6 11,4 27,9 24,1 22,3 8 5 23 13 NW 1022,6 20 53 0,0
22.09.2018 18:00:00 26,3 10,0 30,0 23,9 22,3 12 7 23 13 WNW 1022,5 20 60 0,0
22.09.2018 17:00:00 26,1 9,9 31,2 23,7 22,3 11 6 32 17 WNW 1022,7 20 60 0,0
22.09.2018 16:00:00 25,4 10,8 31,0 23,5 22,4 9 5 23 12 NNW 1023,0 20 60 0,0
22.09.2018 15:00:00 24,4 11,7 30,5 23,3 22,3 10 6 18 10 WNW 1023,4 20 60 0,0
22.09.2018 14:00:00 23,1 11,8 28,5 23,2 22,4 6 3 16 9 NNW 1024,0 20 60 0,0
22.09.2018 13:00:00 21,9 12,2 27,4 23,1 22,3 3 1 13 7 E 1024,3 20 60 0,0
22.09.2018 12:00:00 19,8 12,1 24,4 23,2 22,3 5 3 14 8 NE 1024,9 20 60 0,0
22.09.2018 11:00:00 17,1 13,0 17,2 23,3 22,4 7 4 13 7 NE 1025,3 20 57 0,0
22.09.2018 10:00:00 13,3 12,7 13,9 23,4 22,4 6 3 10 6 ENE 1025,0 3,1 8 0,0
22.09.2018 09:00:00 12,2 11,6 11,8 23,6 22,4 4 2 8 4 ESE 1025,0 0,4 5 0,0
22.09.2018 08:00:00 11,7 10,9 11,5 23,7 22,4 5 3 8 4 E 1024,6 0,3 0 0,0
22.09.2018 07:00:00 12,6 11,5 11,9 23,8 22,4 6 3 10 5 ENE 1024,5 20 0 0,0
22.09.2018 06:00:00 13,9 12,5 13,2 24,0 22,4 7 4 11 6 E 1024,3 20 0 0,0
22.09.2018 05:00:00 15,2 13,2 14,1 24,1 22,3 6 4 10 5 ENE 1024,5 20 0 0,0
22.09.2018 04:00:00 16,4 13,3 15,9 24,2 22,3 0 0 6 4 N 1024,3 20 0 0,0
22.09.2018 03:00:00 16,7 13,6 16,1 24,3 22,4 6 4 10 5 NNW 1024,7 20 0 0,0
22.09.2018 02:00:00 16,5 13,2 15,7 24,4 22,4 4 2 18 10 N 1024,7 20 0 0,0
22.09.2018 01:00:00 17,2 13,3 16,2 24,5 22,3 7 4 14 7 NNW 1024,9 20 0 0,0
22.09.2018 00:00:00 17,6 13,3 16,8 24,6 22,3 4 2 11 6 N 1024,6 20 0 0,0
21.09.2018 23:00:00 18,1 13,6 18,1 24,6 22,3 5 3 13 7 N 1024,6 20 0 0,0
21.09.2018 22:00:00 18,3 15,0 18,4 24,6 22,3 8 4 16 9 N 1024,0 20 0 0,0
21.09.2018 21:00:00 18,5 16,1 17,9 24,6 22,4 9 5 34 18 NNW 1023,1 20 0 0,0
21.09.2018 20:00:00 20,0 15,6 20,2 24,5 22,3 17 9 32 18 NNW 1022,4 20 0 0,0
21.09.2018 19:00:00 22,2 16,2 22,7 24,4 22,3 15 8 36 20 NNW 1021,4 20 0 0,0
21.09.2018 18:00:00 25,7 14,5 26,5 24,3 22,3 22 12 37 20 WNW 1019,9 20 2 0,0
21.09.2018 17:00:00 26,0 13,8 28,6 24,1 22,3 17 9 29 16 WNW 1019,4 20 11 0,0
21.09.2018 16:00:00 26,7 13,4 29,0 24,0 22,3 20 11 30 16 WNW 1019,2 20 37 0,0
21.09.2018 15:00:00 26,1 13,9 30,1 23,9 22,3 15 8 27 15 NW 1019,5 20 48 0,0
21.09.2018 14:00:00 25,6 15,0 28,0 23,8 22,3 11 6 31 17 WNW 1020,0 20 28 0,0
21.09.2018 13:00:00 24,1 15,6 26,8 23,8 22,3 14 7 27 15 WNW 1020,5 18 21 0,0
21.09.2018 12:00:00 23,3 16,3 24,3 23,8 22,3 10 6 22 12 NW 1020,4 20 16 0,0
21.09.2018 11:00:00 21,4 16,8 22,4 23,9 22,3 9 5 16 9 W 1020,3 20 4 0,0
21.09.2018 10:00:00 20,6 16,6 20,7 24,0 22,3 9 5 15 8 WNW 1019,8 20 53 0,0
21.09.2018 09:00:00 18,4 16,4 16,6 24,1 22,3 9 5 14 7 WNW 1019,3 18 22 0,0
21.09.2018 08:00:00 17,6 15,9 16,9 24,2 22,3 6 3 16 8 WNW 1018,3 17 0 0,0
21.09.2018 07:00:00 17,9 16,1 17,3 24,4 22,3 11 6 24 13 WNW 1017,7 19 0 0,0
21.09.2018 06:00:00 17,9 15,9 16,8 24,5 22,3 13 7 19 10 WNW 1017,0 20 0 0,0
21.09.2018 05:00:00 17,9 15,2 16,4 24,7 22,3 7 4 16 9 W 1016,5 20 0 0,0
21.09.2018 04:00:00 17,8 12,7 14,5 24,8 22,3 5 3 18 10 WSW 1016,4 20 0 0,0
21.09.2018 03:00:00 17,8 12,5 14,8 25,0 22,3 3 2 14 8 SW 1015,9 20 0 0,0
21.09.2018 02:00:00 17,4 12,5 14,3 25,1 22,3 6 3 8 4 SSE 1015,8 20 0 0,0
21.09.2018 01:00:00 17,7 12,8 15,0 25,2 22,3 0 0 4 2 N 1015,9 20 0 0,0
21.09.2018 00:00:00 18,9 12,6 15,3 25,3 22,3 3 2 6 4 E 1015,9 20 0 0,0
20.09.2018 23:00:00 20,6 12,3 16,6 25,3 22,3 2 1 6 3 ENE 1015,9 20 0 0,0
20.09.2018 22:00:00 21,9 12,2 17,7 25,3 22,3 5 3 7 4 SSE 1015,8 20 0 0,0
20.09.2018 21:00:00 24,2 11,8 19,7 25,2 22,3 0 0 5 3 N 1015,5 20 0 0,0
20.09.2018 20:00:00 27,4 9,2 23,4 25,0 22,3 3 1 8 4 SSE 1015,2 20 34 0,0
20.09.2018 19:00:00 31,6 7,9 35,7 24,8 22,2 3 2 10 6 S 1015,2 20 60 0,0
20.09.2018 18:00:00 32,5 8,0 38,6 24,6 22,3 5 3 12 6 S 1015,4 20 60 0,0
20.09.2018 17:00:00 32,5 11,1 37,8 24,2 22,3 7 4 19 10 SW 1015,9 20 60 0,0
20.09.2018 16:00:00 32,1 12,8 37,0 23,9 22,3 5 3 18 10 S 1016,7 20 60 0,0
20.09.2018 15:00:00 30,9 13,7 37,5 23,7 22,3 10 6 16 9 WSW 1017,6 20 60 0,0
20.09.2018 14:00:00 29,9 15,2 35,8 23,5 22,3 7 4 16 9 SSE 1018,5 19 60 0,0
20.09.2018 13:00:00 28,2 16,1 33,4 23,5 22,3 5 3 11 6 W 1019,4 20 60 0,0
20.09.2018 12:00:00 26,0 16,8 29,7 23,5 22,3 3 1 9 5 S 1020,2 20 60 0,0
20.09.2018 11:00:00 23,4 16,4 25,7 23,6 22,3 2 1 11 6 SE 1020,7 20 60 0,0
20.09.2018 10:00:00 20,2 16,2 23,1 23,7 22,3 4 2 9 5 SW 1021,1 20 60 0,0
20.09.2018 09:00:00 18,4 16,0 14,4 23,9 22,3 0 0 4 2 N 1021,0 20 60 0,0
20.09.2018 08:00:00 15,2 13,9 13,0 24,0 22,3 0 0 2 1 N 1021,1 17 0 0,0
20.09.2018 07:00:00 15,3 13,5 13,1 24,2 22,3 4 2 5 3 S 1020,8 20 0 0,0
20.09.2018 06:00:00 15,6 14,0 13,6 24,4 22,3 3 2 5 3 SSW 1020,7 20 0 0,0
20.09.2018 05:00:00 16,1 14,3 13,9 24,5 22,3 0 0 3 2 N 1020,8 20 0 0,0
20.09.2018 04:00:00 16,5 14,1 14,4 24,6 22,3 0 0 3 1 N 1020,8 20 0 0,0
20.09.2018 03:00:00 17,4 14,5 15,0 24,8 22,3 0 0 3 2 N 1020,9 20 0 0,0
20.09.2018 02:00:00 17,8 14,7 15,6 24,9 22,3 0 0 4 2 N 1020,8 20 0 0,0
20.09.2018 01:00:00 19,0 15,1 16,4 24,9 22,3 0 0 3 2 N 1020,9 20 0 0,0
20.09.2018 00:00:00 20,1 15,3 17,2 25,0 22,3 3 1 4 2 SSE 1020,9 20 0 0,0
19.09.2018 23:00:00 20,5 15,5 17,4 25,1 22,3 2 1 3 2 SSW 1020,9 20 0 0,0
19.09.2018 22:00:00 22,2 15,1 18,6 25,0 22,3 0 0 7 4 N 1020,3 20 0 0,0
19.09.2018 21:00:00 24,4 15,3 20,4 24,9 22,3 4 2 9 5 W 1019,7 20 0 0,0
19.09.2018 20:00:00 27,1 14,8 24,9 24,8 22,2 6 4 14 7 WNW 1019,4 20 35 0,0
19.09.2018 19:00:00 29,3 13,9 31,2 24,5 22,2 10 5 18 10 NW 1019,3 20 60 0,0
19.09.2018 18:00:00 30,6 12,9 35,1 24,3 22,3 4 2 16 9 NW 1019,1 20 60 0,0
19.09.2018 17:00:00 30,5 12,9 36,0 24,0 22,2 6 3 13 7 NNW 1019,2 20 60 0,0
19.09.2018 16:00:00 30,2 15,5 35,3 23,7 22,2 4 2 15 8 WNW 1019,6 20 60 0,0
19.09.2018 15:00:00 28,2 17,4 33,6 23,6 22,3 6 3 15 8 W 1020,3 20 60 0,0
19.09.2018 14:00:00 26,1 18,0 31,6 23,4 22,2 6 3 16 9 WNW 1020,9 20 60 0,0
19.09.2018 13:00:00 24,1 17,8 24,8 23,4 22,2 7 4 16 9 S 1021,7 20 39 0,0
19.09.2018 12:00:00 20,8 17,8 23,4 23,5 22,2 6 4 16 9 S 1022,4 20 0 0,0

tt = temperature
td = dewpoint
tt 5cm = temperature 5cm
tt -20cm = temperature -20cm
tt -100cm = temperature -100cm
ff = wind speed
fx = gusts
dd = wind direction
ppp = reduced air pressure
vv = visibility
sd = sunshine duration
rr = precipitation

Next stations